Current weather by "City, St" or "zip code"  
 
Advertise Here

Current Conditions: Vero Beach, Vero Beach Municipal Airport, FL

Overcast


70.0 F

Last Updated on Jan 25 2021, 4:53 am EST
Humidity: 90%
Wind Speed: SE 11.5 mph
Barometer 30.06 in
Dewpoint: 66.9 F
Visibility: 10.00 mi
Precip: --
Heat Index: NA
Wind Chill: NA
Current conditions at:

Vero Beach, Vero Beach Municipal Airport, FL (KVRB)

Lat: 27.65556 Lon: 80.41806

Local Radar Image active severe weather and emergency alerts image image weather storm and storm spotter reports image weather observation monitoring service image
Local
Radar
Active
Alerts
Storm Reports Obs
Monitoring

Sign-up For Email & Text Message Weather Alert Notification Services


Advertise Here

Observation History for Vero Beach, Vero Beach Municipal Airport, FL


Time Wind
(mph)
Vis
(mi)
Weather Precip (in) Temperature (F) Relative
Humidity
Wind
Chill
(F)
Heat
Index
(F)
Pressure
Air Dwpt altimeter
(in)
sea level
(mb)
Rmks
4:53 am EST SE 11.5 10.00 Overcast -- 70.0 66.9 90% NA NA 30.06 1017.7
3:53 am EST SE 10.4 10.00 A Few Clouds -- 70.0 66.0 87% NA NA 30.07 1018.2
2:53 am EST SE 10.4 10.00 Fair -- 70.0 66.0 87% NA NA 30.07 1018.3
1:53 am EST SE 9.2 10.00 Fair -- 69.0 66.0 90% NA NA 30.08 1018.6
12:53 am EST SE 11.5 10.00 Partly Cloudy -- 70.0 66.0 87% NA NA 30.10 1019.1
11:53 pm EST SE 10.4 10.00 A Few Clouds -- 70.0 66.0 87% NA NA 30.10 1019.3
10:53 pm EST SE 8.1 10.00 A Few Clouds -- 69.0 66.0 90% NA NA 30.12 1019.8
9:53 pm EST SE 9.2 10.00 Fair -- 69.0 66.0 90% NA NA 30.12 1019.8
8:53 pm EST SE 5.8 10.00 Fair -- 69.0 66.0 90% NA NA 30.12 1019.7
7:53 pm EST 10.00 Fair -- 69.0 66.0 90% NA NA 30.12 1019.7
6:53 pm EST SE 6.9 10.00 Fair -- 70.0 66.0 87% NA NA 30.10 1019.2
5:53 pm EST E 8.1 10.00 Partly Cloudy -- 71.0 66.0 84% NA NA 30.10 1019.3
4:53 pm EST SE 11.5 10.00 Partly Cloudy -- 73.0 66.9 81% NA NA 30.09 1018.8
3:53 pm EST E 11.5 10.00 Mostly Cloudy -- 73.0 66.9 81% NA NA 30.09 1018.8
2:53 pm EST E 9.2 10.00 Mostly Cloudy -- 75.0 66.0 74% NA NA 30.09 1018.8
1:53 pm EST E 9.2 10.00 Mostly Cloudy -- 77.0 66.0 69% NA NA 30.10 1019.0
12:53 pm EST E 13.8 10.00 Mostly Cloudy -- 75.0 66.0 74% NA NA 30.12 1019.9
11:53 am EST SE 13.8 10.00 Partly Cloudy -- 78.0 66.0 67% NA NA 30.15 1020.7
10:53 am EST E 10.4 10.00 Mostly Cloudy -- 78.0 66.0 67% NA NA 30.17 1021.5
9:53 am EST SE 8.1 10.00 Mostly Cloudy -- 74.0 66.0 76% NA NA 30.17 1021.4
8:53 am EST N 0.0 9.00 Partly Cloudy -- 65.0 64.0 97% NA NA 30.15 1020.8
7:53 am EST W 5.8 8.00 Mostly Cloudy -- 64.0 63.0 96% NA NA 30.14 1020.4
6:53 am EST E 5.8 10.00 Overcast -- 69.0 64.9 87% NA NA 30.12 1019.6
5:53 am EST E 3.5 10.00 Partly Cloudy -- 68.0 64.9 90% NA NA 30.09 1018.9

Regional Weather Observation


Vero Beach, Vero Beach Municipal Airport, FL (KVRB)

Overcast
70.0 F

Fort Pierce, St. Lucie County International Airport, FL (KFPR)

Fair
70.0 F

Melbourne International Airport, FL (KMLB)

A Few Clouds
66.0 F

Cocoa - Patrick Air Force Base, FL (KCOF)

Fair
67.0 F

Okeechobee County Airport, FL (KOBE)

Mostly Cloudy
63.0 F

Witham Field Airport, FL (KSUA)

Partly Cloudy
72.0 F